Location: Niles Junction
(37.5763°N, 121.9714°W)
Time: 12:57:41
(UTC+00:00)

Cosmos 2082 Rocket - Pass Details

Date: 29 October 2020
Orbit: 833 x 854 km, 71.0° (Epoch: 01 December)

Event Time Altitude Azimuth Distance (km) Brightness Sun altitude
Exits shadow 13:51:30 - 266° (W) 2,518 4.0 -8.3°
Reaches altitude 10° 13:51:51 10° 269° (W) 2,440 4.0 -8.3°
Maximum altitude 13:55:16 16° 307° (NW) 2,032 3.7 -7.6°
Drops below altitude 10° 13:58:43 10° 346° (NNW) 2,450 4.4 -6.9°
Sets 14:02:10 0° 7° (N) 3,391 5.3 -6.3°
